This is the latest recevied weather packets stored in our database for station/object OE9SAU-10. If no packets are shown the sender has not sent any weather packets the latest 10 day(s).
| Time | Temp. | Humidity | Pressure | Rain* | Wind** | Luminosity | Snow |
|---|---|---|---|---|---|---|---|
| 1777346269 | 15° C | 40% | 1019.4 hPa | - | - | - | - |
| 1777345369 | 15° C | 40% | 1019.4 hPa | - | - | - | - |
| 1777344469 | 15° C | 40% | 1019.6 hPa | - | - | - | - |
| 1777343569 | 15° C | 40% | 1019.5 hPa | - | - | - | - |
| 1777342668 | 15° C | 39% | 1019.7 hPa | - | - | - | - |
| 1777341768 | 15.56° C | 39% | 1019.6 hPa | - | - | - | - |
| 1777340868 | 15.56° C | 39% | 1019.5 hPa | - | - | - | - |
| 1777339968 | 15.56° C | 38% | 1019.6 hPa | - | - | - | - |
| 1777339068 | 15.56° C | 38% | 1019.7 hPa | - | - | - | - |
| 1777338168 | 16.11° C | 37% | 1019.7 hPa | - | - | - | - |
| 1777337268 | 16.11° C | 37% | 1019.8 hPa | - | - | - | - |
| 1777336368 | 16.67° C | 36% | 1019.9 hPa | - | - | - | - |
| 1777335468 | 16.67° C | 36% | 1019.8 hPa | - | - | - | - |
| 1777334568 | 16.67° C | 36% | 1019.7 hPa | - | - | - | - |
| 1777333668 | 17.22° C | 35% | 1019.8 hPa | - | - | - | - |
| 1777332768 | 17.22° C | 35% | 1019.8 hPa | - | - | - | - |
| 1777331868 | 17.22° C | 36% | 1019.8 hPa | - | - | - | - |
| 1777330968 | 17.78° C | 35% | 1019.8 hPa | - | - | - | - |
| 1777330068 | 17.78° C | 34% | 1019.8 hPa | - | - | - | - |
| 1777329168 | 18.33° C | 34% | 1019.8 hPa | - | - | - | - |
| 1777328268 | 18.33° C | 34% | 1019.9 hPa | - | - | - | - |
| 1777327367 | 18.89° C | 34% | 1020.1 hPa | - | - | - | - |
| 1777326467 | 18.89° C | 33% | 1020.1 hPa | - | - | - | - |
| 1777325567 | 18.89° C | 33% | 1020.2 hPa | - | - | - | - |
| 1777324667 | 19.44° C | 33% | 1020.2 hPa | - | - | - | - |
* Rain since midnight (hover to see other rain measurements)
** Current wind speed in m/s (hover to see current wind gust speed)